Weather in Susanino

Russia / Kostroma Oblast     58°08′50″N   41°35′40″E
temp.,
°C
wind,
m/s
gust,
m/s
humid.,
%
clouds,
%
prec.,
mm/h
press.,
hPa
HPBL,
m
23 april, fri
fri2300:00+5s39945 0.0 1016185
03:00+4sse399554 0.0 1016185
06:00+5sse4129222 0.0 1016299
09:00+10sse512745 0.0 1016639
12:00+14s6106080 0.0 10161333
15:00+15s61059100 1.4 10151528
18:00+13s5116313 0.9 1014921
21:00+10sse5147887 0.9 1014492
24 april, sat
sat2400:00+8se5138472 0.0 1013389
03:00+7se4138742 0.1 1012353
06:00+7se514815 0.0 1010454
09:00+11se61373100 0.1 10091035
12:00+14se7136463 0.9 10061682
15:00+12se71269100 2.4 10051514
18:00+6w4795100 2.6 1005400
21:00+6w1195100 5.1 1004247
25 april, sun
sun2500:00+4w2397100 1.2 1002260
03:00+3w3598100 2.1 1000255
06:00+1w61198100 2.7 1000401
09:000w61599100 12.2 1000737
12:00+1w71598100 6.0 1002978
15:00+1w61499100 9.8 10041002
18:00+2w51392100 1.9 10051243
21:00+2wsw41190100 2.0 1006572
26 april, mon
mon2600:00+1wsw41192100 0.1 1006555
03:00+1wsw51291100 0.1 1007573
06:00+1sw51292100 0.0 1008619
09:00+3wsw51090100 0.0 1009868
12:00+5wsw5875100 0.1 10091515
15:00+6wsw587280 0.6 10091419
18:00+5w367735 0.4 1009330
21:000ssw22935 0.4 100928
27 april, tue
tue2700:00−1ssw23935 0.0 100961
03:00−3sw12955 0.0 100933
06:000wsw13895 0.0 100881
09:00+5wsw23725 0.0 1008518
12:00+7w456380 0.8 10081426
15:00+8w465863 1.5 10071640
18:00+6w367323 0.6 1008271
21:00+2sw2283100 0.6 100926